QPF
0.01 0.01 0.00 0.01 0.01 0.00 0.00 0.00 0.00 0.01 0.00 0.01 0.01 0.01 0.01 0.02 0.02 0.02 0.04 0.03 0.01 0.01 0.00 0.00 0.00 0.00 0.00 0.00 0.00 0.00 0.01 0.01 0.01 0.00 0.01 0.01 0.01 0.00 0.00 0.00 0.00 0.00 0.00 0.00
0.01 0.01 0.00 0.00 0.00 0.00 0.00 0.00 0.00 0.01 0.00 0.01 0.01 0.00 0.01 0.03 0.02 0.01 0.02 0.03 0.01 0.01 0.00 0.00 0.00 0.00 0.00 0.00 0.00 0.00 0.00 0.00 0.00 0.00 0.00 0.00 0.01 0.00 0.00 0.00 0.00 0.00 0.00 0.00
0.01 0.00 0.00 0.00 0.00 0.00 0.00 0.00 0.00 0.01 0.01 0.01 0.01 0.02 0.01 0.01 0.01 0.01 0.01 0.02 0.01 0.00 0.00 0.01 0.00 0.00 0.00 0.00 0.00 0.00 0.00 0.01 0.01 0.01 0.01 0.01 0.01 0.00 0.00 0.00 0.00 0.00 0.00 0.00
0.00 0.00 0.00 0.00 0.00 0.00 0.01 0.00 0.00 0.01 0.02 0.02 0.02 0.04 0.03 0.02 0.01 0.01 0.01 0.02 0.02 0.01 0.00 0.00 0.00 0.00 0.00 0.00 0.00 0.00 0.00 0.01 0.01 0.02 0.01 0.01 0.01 0.01 0.00 0.00 0.00 0.00 0.00 0.00
0.00 0.00 0.00 0.00 0.00 0.00 0.00 0.00 0.00 0.00 0.02 0.02 0.01 0.03 0.02 0.01 0.01 0.01 0.01 0.01 0.01 0.01 0.01 0.00 0.00 0.00 0.00 0.00 0.00 0.00 0.00 0.00 0.01 0.00 0.00 0.01 0.01 0.00 0.00 0.00 0.00 0.00 0.00 0.00
0.00 0.00 0.00 0.00 0.00 0.00 0.00 0.01 0.01 0.01 0.02 0.03 0.01 0.02 0.02 0.02 0.01 0.01 0.01 0.00 0.01 0.01 0.01 0.00 0.00 0.00 0.00 0.00 0.00 0.00 0.00 0.01 0.01 0.00 0.00 0.01 0.01 0.01 0.00 0.00 0.00 0.00 0.00 0.00
0.01 0.00 0.00 0.00 0.00 0.00 0.00 0.03 0.04 0.04 0.05 0.03 0.01 0.01 0.01 0.01 0.00 0.00 0.01 0.00 0.00 0.00 0.00 0.00 0.01 0.00 0.00 0.00 0.00 0.00 0.00 0.02 0.02 0.01 0.00 0.01 0.01 0.01 0.01 0.00 0.00 0.00 0.00 0.00
0.02 0.01 0.00 0.00 0.01 0.01 0.01 0.02 0.04 0.05 0.04 0.02 0.01 0.01 0.01 0.00 0.00 0.00 0.00 0.00 0.00 0.00 0.00 0.01 0.01 0.00 0.00 0.00 0.00 0.00 0.01 0.03 0.02 0.02 0.01 0.01 0.01 0.01 0.01 0.00 0.00 0.00 0.00 0.00
0.02 0.01 0.00 0.00 0.00 0.00 0.01 0.01 0.01 0.02 0.02 0.02 0.01 0.01 0.01 0.00 0.00 0.00 0.00 0.00 0.00 0.00 0.00 0.00 0.00 0.01 0.00 0.00 0.00 0.00 0.01 0.01 0.01 0.02 0.03 0.02 0.01 0.01 0.01 0.01 0.00 0.00 0.00 0.00
0.01 0.01 0.00 0.01 0.00 0.00 0.01 0.01 0.01 0.03 0.04 0.05 0.03 0.02 0.02 0.01 0.01 0.00 0.01 0.00 0.00 0.00 0.01 0.01 0.01 0.01 0.00 0.00 0.00 0.00 0.00 0.01 0.01 0.01 0.02 0.03 0.02 0.02 0.02 0.02 0.01 0.00 0.00 0.00
0.01 0.03 0.02 0.01 0.01 0.01 0.01 0.01 0.01 0.02 0.03 0.05 0.06 0.04 0.01 0.00 0.00 0.00 0.00 0.00 0.01 0.01 0.01 0.01 0.02 0.01 0.00 0.00 0.00 0.00 0.01 0.00 0.01 0.01 0.01 0.01 0.02 0.03 0.02 0.02 0.01 0.01 0.00 0.00
0.01 0.03 0.03 0.01 0.01 0.00 0.01 0.01 0.02 0.04 0.03 0.02 0.03 0.03 0.01 0.00 0.00 0.00 0.00 0.01 0.02 0.01 0.01 0.01 0.01 0.00 0.01 0.01 0.00 0.00 0.01 0.00 0.00 0.00 0.00 0.01 0.01 0.02 0.03 0.02 0.01 0.01 0.00 0.00
0.02 0.06 0.06 0.04 0.03 0.01 0.01 0.01 0.02 0.02 0.02 0.02 0.03 0.03 0.01 0.00 0.00 0.00 0.00 0.00 0.01 0.01 0.01 0.01 0.01 0.00 0.01 0.01 0.00 0.00 0.00 0.00 0.00 0.00 0.00 0.00 0.00 0.01 0.02 0.02 0.02 0.01 0.01 0.01
0.03 0.05 0.05 0.04 0.03 0.02 0.02 0.02 0.02 0.02 0.04 0.03 0.02 0.02 0.01 0.00 0.00 0.01 0.01 0.00 0.00 0.00 0.00 0.00 0.00 0.00 0.01 0.01 0.01 0.01 0.00 0.00 0.00 0.00 0.00 0.00 0.00 0.00 0.00 0.01 0.02 0.02 0.01 0.01
0.02 0.04 0.02 0.01 0.01 0.01 0.02 0.02 0.02 0.02 0.02 0.03 0.02 0.01 0.01 0.01 0.01 0.01 0.01 0.01 0.00 0.00 0.00 0.00 0.00 0.00 0.01 0.01 0.01 0.01 0.00 0.00 0.01 0.00 0.00 0.00 0.00 0.00 0.00 0.00 0.00 0.01 0.03 0.02
0.03 0.04 0.02 0.01 0.01 0.01 0.02 0.02 0.02 0.02 0.01 0.01 0.00 0.00 0.01 0.01 0.01 0.02 0.01 0.00 0.00 0.01 0.00 0.00 0.00 0.00 0.01 0.01 0.01 0.01 0.01 0.01 0.00 0.00 0.00 0.00 0.00 0.00 0.00 0.00 0.00 0.00 0.01 0.02
0.03 0.04 0.04 0.03 0.01 0.01 0.02 0.01 0.01 0.01 0.01 0.00 0.01 0.01 0.01 0.01 0.00 0.01 0.01 0.00 0.00 0.00 0.00 0.00 0.00 0.00 0.00 0.00 0.01 0.01 0.00 0.00 0.00 0.00 0.00 0.00 0.00 0.00 0.01 0.01 0.01 0.00 0.00 0.01
0.02 0.04 0.06 0.04 0.03 0.03 0.01 0.00 0.00 0.00 0.00 0.00 0.00 0.00 0.00 0.00 0.01 0.01 0.01 0.00 0.00 0.00 0.01 0.01 0.00 0.00 0.00 0.00 0.00 0.00 0.01 0.00 0.00 0.01 0.00 0.00 0.00 0.00 0.01 0.01 0.01 0.01 0.01 0.01
0.02 0.04 0.06 0.05 0.05 0.03 0.01 0.00 0.00 0.00 0.00 0.00 0.00 0.00 0.00 0.00 0.00 0.01 0.01 0.00 0.00 0.00 0.00 0.01 0.00 0.00 0.00 0.00 0.00 0.00 0.00 0.00 0.00 0.01 0.00 0.00 0.00 0.00 0.01 0.01 0.02 0.02 0.02 0.02
0.02 0.04 0.06 0.05 0.05 0.04 0.01 0.00 0.00 0.01 0.01 0.01 0.00 0.00 0.00 0.00 0.00 0.00 0.00 0.00 0.00 0.00 0.00 0.00 0.00 0.00 0.00 0.00 0.00 0.00 0.00 0.01 0.01 0.00 0.00 0.00 0.00 0.01 0.01 0.01 0.01 0.02 0.02 0.02
0.02 0.03 0.04 0.05 0.04 0.02 0.01 0.00 0.01 0.02 0.03 0.01 0.01 0.01 0.00 0.00 0.00 0.00 0.00 0.00 0.00 0.00 0.00 0.00 0.00 0.00 0.00 0.00 0.00 0.00 0.00 0.00 0.01 0.00 0.00 0.00 0.00 0.01 0.01 0.01 0.01 0.02 0.02 0.02
0.03 0.03 0.03 0.04 0.04 0.02 0.01 0.01 0.01 0.02 0.01 0.01 0.01 0.01 0.01 0.00 0.00 0.00 0.00 0.00 0.00 0.00 0.00 0.00 0.00 0.00 0.00 0.00 0.00 0.00 0.00 0.00 0.01 0.01 0.01 0.01 0.01 0.01 0.01 0.02 0.02 0.02 0.02 0.02
0.03 0.03 0.03 0.04 0.03 0.01 0.01 0.01 0.01 0.01 0.00 0.00 0.00 0.00 0.00 0.00 0.00 0.00 0.00 0.00 0.00 0.00 0.00 0.00 0.00 0.00 0.00 0.00 0.00 0.00 0.00 0.00 0.00 0.01 0.01 0.01 0.01 0.01 0.01 0.02 0.02 0.02 0.02 0.02
0.02 0.01 0.02 0.03 0.02 0.01 0.01 0.00 0.00 0.00 0.00 0.00 0.00 0.00 0.00 0.00 0.00 0.00 0.00 0.00 0.00 0.00 0.00 0.00 0.00 0.00 0.00 0.00 0.00 0.00 0.00 0.00 0.00 0.01 0.01 0.00 0.00 0.00 0.00 0.01 0.02 0.02 0.02 0.02
0.02 0.02 0.03 0.03 0.02 0.01 0.01 0.00 0.00 0.00 0.00 0.00 0.00 0.00 0.00 0.00 0.00 0.00 0.00 0.00 0.00 0.00 0.00 0.00 0.00 0.00 0.00 0.00 0.00 0.01 0.00 0.00 0.00 0.01 0.01 0.01 0.01 0.01 0.00 0.01 0.01 0.02 0.02 0.02
0.02 0.03 0.06 0.04 0.02 0.01 0.00 0.00 0.00 0.00 0.00 0.00 0.00 0.00 0.00 0.01 0.01 0.01 0.01 0.00 0.00 0.00 0.00 0.00 0.00 0.00 0.00 0.00 0.00 0.01 0.00 0.00 0.00 0.01 0.01 0.01 0.01 0.01 0.01 0.00 0.01 0.01 0.02 0.02
MSLP
1013.16 1013.96 1014.65 1015.18 1015.55 1015.76 1015.87 1015.91 1015.95 1016.01 1016.08 1016.17 1016.24 1016.27 1016.24 1016.12 1015.94 1015.70 1015.44 1015.17 1014.92 1014.69 1014.51 1014.36 1014.25 1014.18 1014.16 1014.21 1014.34 1014.56 1014.89 1015.29 1015.74 1016.21 1016.63 1016.97 1017.18 1017.26 1017.22 1017.08 1016.89 1016.70 1016.56 1016.49
1013.91 1014.59 1015.13 1015.49 1015.69 1015.78 1015.81 1015.83 1015.89 1016.00 1016.15 1016.30 1016.40 1016.43 1016.36 1016.17 1015.88 1015.54 1015.18 1014.84 1014.55 1014.33 1014.17 1014.07 1014.01 1014.00 1014.02 1014.10 1014.24 1014.48 1014.81 1015.23 1015.72 1016.22 1016.69 1017.08 1017.35 1017.47 1017.45 1017.33 1017.14 1016.95 1016.80 1016.72
1014.52 1015.07 1015.44 1015.65 1015.73 1015.72 1015.71 1015.75 1015.86 1016.04 1016.26 1016.47 1016.60 1016.60 1016.46 1016.17 1015.77 1015.31 1014.86 1014.46 1014.15 1013.94 1013.84 1013.81 1013.83 1013.88 1013.95 1014.06 1014.22 1014.45 1014.77 1015.19 1015.68 1016.20 1016.70 1017.13 1017.45 1017.62 1017.64 1017.55 1017.38 1017.20 1017.04 1016.96
1014.95 1015.36 1015.60 1015.69 1015.68 1015.63 1015.63 1015.72 1015.91 1016.18 1016.47 1016.72 1016.85 1016.81 1016.57 1016.16 1015.62 1015.04 1014.49 1014.03 1013.71 1013.54 1013.50 1013.56 1013.67 1013.81 1013.94 1014.08 1014.25 1014.47 1014.77 1015.16 1015.64 1016.15 1016.67 1017.13 1017.48 1017.69 1017.75 1017.69 1017.55 1017.38 1017.23 1017.13
1015.20 1015.50 1015.63 1015.64 1015.59 1015.55 1015.60 1015.78 1016.08 1016.44 1016.81 1017.08 1017.18 1017.06 1016.71 1016.15 1015.47 1014.76 1014.11 1013.60 1013.27 1013.14 1013.17 1013.32 1013.53 1013.75 1013.95 1014.13 1014.31 1014.51 1014.78 1015.14 1015.58 1016.08 1016.58 1017.05 1017.42 1017.66 1017.75 1017.72 1017.60 1017.43 1017.28 1017.17
1015.30 1015.50 1015.56 1015.53 1015.50 1015.52 1015.66 1015.95 1016.36 1016.83 1017.25 1017.53 1017.59 1017.38 1016.90 1016.19 1015.36 1014.51 1013.76 1013.19 1012.86 1012.76 1012.86 1013.10 1013.40 1013.70 1013.96 1014.18 1014.36 1014.55 1014.79 1015.10 1015.50 1015.96 1016.44 1016.89 1017.26 1017.50 1017.61 1017.59 1017.48 1017.31 1017.15 1017.02
1015.29 1015.42 1015.44 1015.42 1015.43 1015.54 1015.80 1016.21 1016.74 1017.28 1017.75 1018.03 1018.04 1017.73 1017.12 1016.27 1015.30 1014.33 1013.49 1012.88 1012.53 1012.45 1012.60 1012.91 1013.28 1013.64 1013.96 1014.20 1014.39 1014.57 1014.77 1015.04 1015.38 1015.79 1016.22 1016.64 1016.99 1017.22 1017.32 1017.30 1017.19 1017.02 1016.84 1016.70
1015.21 1015.29 1015.31 1015.32 1015.40 1015.62 1015.99 1016.51 1017.13 1017.75 1018.24 1018.50 1018.45 1018.06 1017.34 1016.38 1015.30 1014.25 1013.34 1012.68 1012.32 1012.25 1012.43 1012.77 1013.18 1013.59 1013.93 1014.19 1014.38 1014.54 1014.71 1014.93 1015.23 1015.58 1015.96 1016.33 1016.64 1016.84 1016.93 1016.89 1016.76 1016.58 1016.40 1016.25
1015.08 1015.14 1015.18 1015.24 1015.40 1015.71 1016.18 1016.79 1017.47 1018.11 1018.61 1018.84 1018.74 1018.29 1017.50 1016.47 1015.34 1014.24 1013.30 1012.62 1012.24 1012.17 1012.35 1012.70 1013.13 1013.54 1013.89 1014.15 1014.34 1014.48 1014.62 1014.81 1015.05 1015.36 1015.69 1016.01 1016.27 1016.43 1016.49 1016.43 1016.29 1016.11 1015.92 1015.77
1014.92 1014.99 1015.06 1015.18 1015.41 1015.78 1016.31 1016.97 1017.66 1018.30 1018.77 1018.97 1018.83 1018.33 1017.52 1016.48 1015.35 1014.26 1013.33 1012.66 1012.29 1012.22 1012.39 1012.72 1013.12 1013.52 1013.85 1014.10 1014.27 1014.40 1014.53 1014.69 1014.90 1015.16 1015.45 1015.72 1015.94 1016.08 1016.10 1016.03 1015.88 1015.70 1015.52 1015.39
1014.73 1014.84 1014.95 1015.13 1015.40 1015.82 1016.36 1017.00 1017.66 1018.24 1018.64 1018.79 1018.61 1018.11 1017.32 1016.33 1015.26 1014.24 1013.39 1012.77 1012.43 1012.36 1012.51 1012.81 1013.17 1013.53 1013.83 1014.06 1014.22 1014.34 1014.46 1014.62 1014.81 1015.05 1015.31 1015.56 1015.75 1015.86 1015.87 1015.79 1015.65 1015.48 1015.32 1015.21
1014.54 1014.69 1014.86 1015.08 1015.39 1015.79 1016.30 1016.86 1017.43 1017.90 1018.21 1018.28 1018.07 1017.58 1016.85 1015.96 1015.01 1014.12 1013.38 1012.86 1012.58 1012.53 1012.68 1012.95 1013.27 1013.58 1013.85 1014.05 1014.20 1014.33 1014.46 1014.63 1014.83 1015.07 1015.32 1015.56 1015.74 1015.84 1015.86 1015.79 1015.67 1015.52 1015.39 1015.30
1014.36 1014.58 1014.81 1015.06 1015.37 1015.73 1016.15 1016.59 1017.00 1017.33 1017.50 1017.47 1017.22 1016.75 1016.10 1015.33 1014.55 1013.83 1013.25 1012.86 1012.67 1012.68 1012.84 1013.09 1013.38 1013.66 1013.90 1014.10 1014.26 1014.40 1014.56 1014.75 1014.99 1015.25 1015.51 1015.75 1015.94 1016.05 1016.08 1016.04 1015.95 1015.84 1015.75 1015.69
1014.23 1014.53 1014.81 1015.09 1015.37 1015.66 1015.95 1016.22 1016.45 1016.58 1016.59 1016.44 1016.14 1015.68 1015.11 1014.49 1013.88 1013.36 1012.97 1012.73 1012.67 1012.76 1012.95 1013.22 1013.50 1013.77 1014.00 1014.20 1014.39 1014.57 1014.77 1015.01 1015.28 1015.58 1015.87 1016.13 1016.34 1016.47 1016.53 1016.52 1016.47 1016.40 1016.34 1016.32
1014.20 1014.57 1014.89 1015.17 1015.41 1015.60 1015.75 1015.83 1015.85 1015.77 1015.59 1015.31 1014.93 1014.47 1013.97 1013.49 1013.06 1012.74 1012.54 1012.48 1012.56 1012.74 1013.01 1013.31 1013.61 1013.89 1014.15 1014.38 1014.60 1014.84 1015.10 1015.39 1015.72 1016.05 1016.37 1016.66 1016.89 1017.05 1017.14 1017.16 1017.15 1017.12 1017.10 1017.11
1014.27 1014.69 1015.05 1015.32 1015.50 1015.59 1015.58 1015.47 1015.27 1014.99 1014.62 1014.19 1013.73 1013.26 1012.82 1012.45 1012.18 1012.03 1012.02 1012.13 1012.35 1012.65 1013.00 1013.36 1013.71 1014.04 1014.34 1014.62 1014.91 1015.20 1015.53 1015.88 1016.25 1016.63 1016.98 1017.29 1017.54 1017.72 1017.83 1017.89 1017.91 1017.92 1017.94 1017.97
1014.43 1014.88 1015.24 1015.49 1015.61 1015.60 1015.45 1015.17 1014.78 1014.30 1013.77 1013.21 1012.67 1012.18 1011.78 1011.50 1011.36 1011.36 1011.50 1011.77 1012.12 1012.53 1012.97 1013.41 1013.82 1014.21 1014.58 1014.93 1015.28 1015.65 1016.04 1016.45 1016.86 1017.26 1017.64 1017.96 1018.22 1018.42 1018.55 1018.63 1018.68 1018.73 1018.77 1018.83
1014.59 1015.03 1015.38 1015.59 1015.66 1015.57 1015.31 1014.90 1014.37 1013.76 1013.10 1012.44 1011.84 1011.33 1010.96 1010.74 1010.70 1010.82 1011.08 1011.46 1011.93 1012.44 1012.96 1013.48 1013.97 1014.43 1014.86 1015.29 1015.72 1016.15 1016.60 1017.05 1017.50 1017.92 1018.30 1018.63 1018.90 1019.09 1019.24 1019.34 1019.42 1019.49 1019.56 1019.65
1014.64 1015.05 1015.36 1015.53 1015.55 1015.40 1015.08 1014.61 1014.00 1013.31 1012.59 1011.89 1011.26 1010.76 1010.41 1010.25 1010.28 1010.48 1010.83 1011.30 1011.84 1012.43 1013.02 1013.60 1014.16 1014.69 1015.20 1015.69 1016.18 1016.68 1017.17 1017.66 1018.13 1018.56 1018.94 1019.27 1019.53 1019.73 1019.88 1020.00 1020.11 1020.21 1020.31 1020.42
1014.46 1014.80 1015.06 1015.19 1015.18 1015.01 1014.68 1014.20 1013.59 1012.90 1012.19 1011.51 1010.91 1010.44 1010.14 1010.03 1010.11 1010.37 1010.78 1011.30 1011.89 1012.52 1013.17 1013.80 1014.41 1014.99 1015.56 1016.11 1016.65 1017.19 1017.72 1018.24 1018.72 1019.15 1019.54 1019.86 1020.12 1020.32 1020.49 1020.63 1020.77 1020.90 1021.04 1021.19
1013.96 1014.22 1014.41 1014.51 1014.49 1014.33 1014.03 1013.60 1013.05 1012.44 1011.81 1011.21 1010.69 1010.30 1010.08 1010.03 1010.16 1010.46 1010.90 1011.45 1012.07 1012.73 1013.39 1014.05 1014.69 1015.32 1015.92 1016.51 1017.10 1017.67 1018.22 1018.75 1019.24 1019.68 1020.06 1020.39 1020.65 1020.88 1021.07 1021.24 1021.42 1021.59 1021.78 1021.96
1013.10 1013.27 1013.40 1013.46 1013.45 1013.33 1013.10 1012.77 1012.35 1011.87 1011.38 1010.91 1010.53 1010.25 1010.12 1010.15 1010.34 1010.68 1011.15 1011.71 1012.34 1013.00 1013.67 1014.34 1014.99 1015.63 1016.26 1016.87 1017.48 1018.07 1018.64 1019.18 1019.67 1020.12 1020.52 1020.85 1021.14 1021.40 1021.62 1021.84 1022.07 1022.29 1022.52 1022.75
1011.93 1012.02 1012.09 1012.13 1012.13 1012.06 1011.93 1011.72 1011.46 1011.15 1010.83 1010.54 1010.31 1010.18 1010.17 1010.29 1010.55 1010.94 1011.43 1012.00 1012.63 1013.28 1013.95 1014.61 1015.27 1015.91 1016.54 1017.16 1017.78 1018.38 1018.95 1019.50 1020.01 1020.47 1020.88 1021.25 1021.58 1021.87 1022.15 1022.43 1022.70 1022.98 1023.26 1023.52
1010.59 1010.60 1010.62 1010.64 1010.65 1010.65 1010.62 1010.55 1010.44 1010.31 1010.17 1010.06 1010.00 1010.02 1010.14 1010.36 1010.70 1011.14 1011.66 1012.25 1012.88 1013.53 1014.18 1014.84 1015.48 1016.12 1016.75 1017.37 1017.98 1018.58 1019.16 1019.72 1020.24 1020.73 1021.17 1021.57 1021.95 1022.29 1022.63 1022.96 1023.29 1023.62 1023.94 1024.24
1009.22 1009.17 1009.15 1009.16 1009.20 1009.25 1009.30 1009.35 1009.38 1009.41 1009.44 1009.49 1009.59 1009.75 1009.99 1010.31 1010.73 1011.22 1011.78 1012.39 1013.03 1013.69 1014.34 1014.99 1015.63 1016.25 1016.87 1017.49 1018.09 1018.69 1019.28 1019.84 1020.38 1020.89 1021.37 1021.82 1022.24 1022.64 1023.03 1023.42 1023.80 1024.17 1024.52 1024.83
1007.99 1007.89 1007.84 1007.85 1007.90 1008.00 1008.12 1008.25 1008.39 1008.53 1008.69 1008.87 1009.10 1009.37 1009.72 1010.13 1010.62 1011.17 1011.78 1012.42 1013.08 1013.75 1014.41 1015.06 1015.70 1016.32 1016.93 1017.54 1018.14 1018.73 1019.32 1019.90 1020.46 1020.99 1021.50 1021.99 1022.46 1022.91 1023.34 1023.77 1024.18 1024.58 1024.94 1025.27
Thickness
5754 5741 5733 5740 5747 5746 5742 5736 5733 5740 5753 5746 5739 5738 5743 5748 5746 5744 5743 5744 5744 5745 5748 5749 5748 5747 5746 5745 5743 5742 5739 5738 5737 5735 5732 5731 5730 5733 5733 5734 5734 5734 5735 5735
5739 5733 5746 5753 5752 5747 5741 5733 5732 5741 5751 5745 5738 5739 5746 5749 5747 5747 5746 5744 5745 5745 5745 5745 5745 5744 5743 5742 5740 5739 5737 5736 5734 5733 5732 5731 5730 5730 5730 5730 5730 5731 5731 5730
5731 5740 5752 5746 5741 5737 5736 5733 5732 5733 5742 5745 5737 5730 5740 5748 5752 5750 5750 5749 5748 5746 5744 5743 5742 5741 5741 5739 5738 5738 5736 5734 5733 5732 5731 5729 5727 5726 5725 5725 5725 5727 5727 5727
5736 5746 5746 5740 5737 5737 5727 5742 5740 5735 5727 5723 5730 5709 5731 5744 5744 5746 5747 5747 5746 5747 5747 5744 5741 5739 5738 5738 5738 5737 5735 5733 5731 5730 5727 5724 5720 5718 5721 5722 5722 5724 5724 5724
5731 5740 5737 5733 5737 5740 5735 5745 5740 5736 5728 5723 5728 5717 5726 5744 5737 5742 5746 5748 5748 5747 5747 5744 5742 5740 5740 5739 5737 5736 5734 5732 5730 5728 5726 5723 5720 5720 5720 5721 5720 5720 5721 5721
5735 5745 5743 5740 5745 5745 5741 5736 5734 5732 5723 5706 5724 5719 5718 5737 5743 5746 5749 5750 5749 5749 5747 5746 5744 5741 5739 5738 5736 5734 5731 5730 5729 5727 5724 5721 5719 5718 5717 5716 5716 5716 5717 5718
5720 5732 5742 5745 5733 5736 5733 5714 5698 5696 5696 5705 5734 5725 5727 5749 5757 5755 5752 5752 5751 5750 5747 5744 5741 5738 5736 5735 5733 5731 5728 5726 5725 5724 5723 5721 5719 5718 5715 5714 5714 5714 5714 5714
5705 5710 5731 5737 5731 5724 5727 5717 5696 5687 5694 5710 5728 5723 5737 5757 5762 5762 5760 5755 5753 5750 5747 5744 5741 5738 5735 5733 5732 5729 5726 5724 5723 5722 5721 5720 5719 5717 5715 5715 5714 5713 5712 5712
5703 5706 5731 5736 5738 5732 5721 5719 5727 5712 5711 5706 5716 5728 5741 5755 5755 5756 5755 5752 5749 5749 5747 5744 5742 5739 5736 5733 5731 5729 5726 5723 5722 5720 5719 5719 5718 5716 5714 5714 5713 5712 5712 5711
5709 5699 5717 5728 5730 5731 5730 5727 5719 5707 5693 5690 5706 5716 5720 5736 5742 5747 5749 5748 5749 5749 5747 5745 5742 5740 5737 5734 5732 5730 5727 5724 5722 5720 5719 5718 5716 5715 5714 5712 5711 5710 5710 5709
5709 5696 5703 5712 5710 5712 5718 5717 5716 5711 5709 5694 5688 5704 5741 5741 5746 5746 5747 5749 5749 5748 5746 5744 5742 5740 5737 5734 5731 5728 5726 5723 5721 5719 5718 5716 5714 5713 5712 5710 5710 5709 5708 5707
5704 5695 5690 5702 5720 5727 5720 5717 5712 5694 5697 5706 5699 5707 5750 5750 5750 5749 5747 5748 5749 5748 5746 5744 5741 5739 5735 5732 5730 5727 5726 5723 5721 5719 5718 5715 5712 5711 5709 5708 5707 5707 5706 5705
5695 5685 5675 5681 5696 5710 5710 5713 5715 5710 5703 5699 5693 5704 5745 5748 5745 5745 5744 5744 5744 5744 5743 5742 5739 5736 5733 5731 5729 5727 5726 5723 5721 5719 5716 5713 5710 5708 5706 5705 5705 5704 5703 5702
5692 5682 5677 5671 5683 5694 5697 5702 5707 5703 5693 5694 5701 5708 5725 5732 5733 5735 5737 5740 5741 5740 5739 5738 5734 5733 5731 5730 5729 5727 5725 5724 5721 5717 5713 5710 5707 5705 5704 5703 5703 5702 5700 5699
5688 5677 5683 5689 5696 5696 5695 5697 5700 5698 5700 5695 5702 5708 5719 5728 5730 5733 5735 5735 5735 5734 5734 5734 5732 5731 5729 5728 5728 5726 5724 5722 5720 5715 5711 5708 5706 5704 5702 5701 5700 5699 5697 5696
5683 5676 5679 5681 5690 5691 5688 5694 5697 5698 5700 5704 5706 5707 5724 5729 5730 5729 5729 5729 5728 5729 5730 5731 5731 5729 5727 5727 5725 5724 5722 5721 5719 5714 5710 5707 5705 5702 5699 5698 5696 5694 5693 5692
5676 5672 5666 5667 5680 5679 5674 5692 5695 5696 5702 5704 5699 5707 5719 5719 5720 5722 5723 5724 5724 5725 5726 5727 5728 5728 5728 5727 5726 5723 5722 5721 5717 5713 5709 5706 5703 5699 5697 5695 5693 5690 5689 5688
5673 5668 5663 5662 5665 5653 5683 5705 5703 5696 5700 5707 5708 5710 5714 5715 5719 5722 5724 5721 5721 5722 5722 5724 5726 5726 5728 5729 5728 5725 5722 5719 5715 5711 5707 5704 5701 5697 5695 5692 5690 5688 5686 5684
5677 5665 5657 5655 5653 5663 5684 5696 5697 5690 5691 5704 5704 5706 5710 5715 5714 5713 5719 5721 5719 5720 5721 5722 5724 5725 5726 5726 5726 5724 5719 5717 5713 5709 5706 5703 5700 5696 5692 5689 5687 5686 5684 5681
5670 5666 5654 5650 5644 5648 5673 5695 5703 5693 5681 5700 5702 5700 5703 5704 5691 5697 5712 5716 5716 5717 5718 5719 5721 5722 5721 5722 5723 5719 5716 5713 5710 5708 5705 5703 5699 5695 5691 5688 5686 5684 5682 5679
5652 5652 5648 5646 5645 5655 5679 5694 5694 5669 5673 5695 5699 5698 5699 5695 5696 5703 5709 5710 5711 5712 5713 5715 5715 5715 5716 5718 5717 5714 5712 5710 5710 5708 5704 5700 5697 5693 5690 5687 5684 5681 5679 5676
5649 5647 5647 5646 5641 5650 5681 5684 5677 5678 5691 5692 5693 5694 5694 5696 5698 5701 5702 5702 5704 5704 5706 5708 5708 5708 5711 5713 5711 5709 5707 5709 5708 5704 5700 5697 5694 5691 5688 5683 5680 5678 5675 5671
5652 5654 5652 5652 5653 5669 5678 5678 5685 5688 5686 5688 5688 5690 5690 5690 5691 5693 5694 5696 5697 5698 5699 5701 5701 5702 5704 5707 5706 5703 5704 5705 5703 5699 5695 5693 5690 5687 5685 5680 5676 5673 5670 5666
5653 5660 5655 5652 5658 5666 5671 5676 5680 5682 5682 5685 5686 5686 5686 5684 5686 5687 5688 5689 5691 5692 5693 5694 5694 5694 5696 5699 5700 5700 5701 5700 5697 5693 5691 5688 5685 5682 5680 5677 5673 5669 5666 5663
5642 5646 5646 5647 5654 5659 5663 5668 5673 5675 5679 5681 5681 5682 5681 5680 5680 5681 5682 5683 5684 5686 5687 5688 5688 5688 5690 5693 5694 5695 5696 5695 5691 5689 5686 5684 5681 5678 5674 5671 5669 5667 5665 5663
5637 5637 5636 5638 5649 5650 5655 5664 5669 5668 5669 5672 5674 5674 5676 5676 5675 5676 5676 5678 5679 5680 5681 5681 5682 5684 5685 5687 5688 5690 5690 5689 5686 5683 5681 5679 5676 5673 5670 5666 5662 5662 5660 5659